�������l�o���
Date,Time,MP-1(��Sv/h),MP-2(��Sv/h),MP-3(��Sv/h),MP-4(��Sv/h),MP-5(��Sv/h),MP-6(��Sv/h),MP-7(��Sv/h),MP-8(��Sv/h),����,����(m/s),���J
2017/06/20,00:00,0.966,1.539,1.021,1.836,1.252,0.519,0.958,0.885,�k��,1.7,��
2017/06/20,00:10,0.968,1.538,1.020,1.833,1.252,0.521,0.958,0.888,�k�k��,1.5,��
2017/06/20,00:20,0.964,1.538,1.022,1.836,1.250,0.519,0.957,0.886,�k�k��,2.0,��
2017/06/20,00:30,0.966,1.539,1.020,1.837,1.252,0.520,0.958,0.886,�k�k��,1.9,��
2017/06/20,00:40,0.967,1.539,1.022,1.833,1.252,0.519,0.956,0.887,�k��,1.5,��
2017/06/20,00:50,0.965,1.539,1.021,1.837,1.252,0.519,0.957,0.886,�k��,1.5,��
2017/06/20,01:00,0.966,1.541,1.018,1.835,1.252,0.520,0.957,0.885,�k��,1.4,��
2017/06/20,01:10,0.966,1.538,1.021,1.836,1.252,0.519,0.958,0.888,�k��,1.5,��
2017/06/20,01:20,0.967,1.538,1.019,1.835,1.247,0.519,0.958,0.887,�k��,1.7,��
2017/06/20,01:30,0.965,1.542,1.022,1.837,1.251,0.520,0.958,0.887,���k��,1.4,��
2017/06/20,01:40,0.967,1.540,1.021,1.837,1.253,0.518,0.955,0.887,���k��,1.5,��
2017/06/20,01:50,0.967,1.537,1.021,1.839,1.252,0.520,0.955,0.887,���k��,1.4,��
2017/06/20,02:00,0.966,1.540,1.022,1.837,1.252,0.519,0.957,0.888,���k��,1.2,��
2017/06/20,02:10,0.967,1.539,1.019,1.833,1.252,0.518,0.959,0.887,���k��,0.9,��
2017/06/20,02:20,0.966,1.538,1.021,1.836,1.250,0.520,0.956,0.885,���k��,1.4,��
2017/06/20,02:30,0.965,1.539,1.018,1.838,1.251,0.519,0.957,0.886,���k��,1.1,��
2017/06/20,02:40,0.965,1.537,1.020,1.837,1.251,0.519,0.957,0.885,��,1.1,��
2017/06/20,02:50,0.966,1.541,1.020,1.838,1.250,0.519,0.956,0.886,��,1.2,��
2017/06/20,03:00,0.966,1.538,1.019,1.835,1.252,0.520,0.957,0.884,��,1.4,��
2017/06/20,03:10,0.965,1.537,1.020,1.835,1.253,0.520,0.956,0.886,���쐼,1.2,��
2017/06/20,03:20,0.966,1.538,1.022,1.838,1.250,0.519,0.957,0.888,��,0.6,��
2017/06/20,03:30,0.963,1.539,1.018,1.836,1.253,0.522,0.956,0.888,���쐼,1.2,��
2017/06/20,03:40,0.966,1.538,1.020,1.835,1.254,0.519,0.957,0.888,�쐼,0.9,��
2017/06/20,03:50,0.965,1.539,1.019,1.837,1.250,0.520,0.958,0.886,�쐼,0.9,��
2017/06/20,04:00,0.964,1.539,1.019,1.837,1.251,0.520,0.955,0.888,��쐼,1.4,��
2017/06/20,04:10,0.965,1.540,1.020,1.834,1.252,0.521,0.958,0.886,��쐼,1.4,��
2017/06/20,04:20,0.964,1.536,1.021,1.837,1.253,0.520,0.958,0.887,��,1.2,��
2017/06/20,04:30,0.967,1.538,1.018,1.840,1.251,0.519,0.959,0.885,��쓌,1.2,��
2017/06/20,04:40,0.964,1.537,1.020,1.838,1.252,0.520,0.957,0.886,��쓌,2.3,��
2017/06/20,04:50,0.966,1.538,1.019,1.836,1.251,0.519,0.957,0.887,��쓌,2.0,��
2017/06/20,05:00,0.964,1.540,1.018,1.835,1.248,0.520,0.955,0.888,��쓌,1.9,��
2017/06/20,05:10,0.964,1.538,1.018,1.834,1.252,0.519,0.958,0.886,��쓌,2.3,��
2017/06/20,05:20,0.963,1.539,1.019,1.835,1.251,0.518,0.957,0.886,�쓌,3.2,��
2017/06/20,05:30,0.967,1.541,1.020,1.837,1.250,0.521,0.958,0.887,��,2.9,��
2017/06/20,05:40,0.966,1.537,1.022,1.838,1.250,0.520,0.958,0.886,��,3.3,��
2017/06/20,05:50,0.968,1.540,1.020,1.837,1.255,0.521,0.959,0.886,��쓌,3.0,��
2017/06/20,06:00,0.968,1.541,1.020,1.839,1.252,0.520,0.957,0.888,��쓌,3.0,��
2017/06/20,06:10,0.966,1.541,1.022,1.836,1.253,0.519,0.957,0.887,��쓌,2.8,��
2017/06/20,06:20,0.968,1.539,1.021,1.839,1.251,0.522,0.958,0.888,��,2.8,��
2017/06/20,06:30,0.967,1.542,1.022,1.837,1.255,0.520,0.958,0.887,��,3.3,��
2017/06/20,06:40,0.967,1.542,1.022,1.842,1.254,0.521,0.959,0.890,��,3.5,��
2017/06/20,06:50,0.968,1.544,1.021,1.840,1.254,0.520,0.961,0.888,��,2.5,��
2017/06/20,07:00,0.968,1.545,1.022,1.841,1.254,0.520,0.960,0.887,��,2.3,��
2017/06/20,07:10,0.967,1.545,1.024,1.839,1.253,0.519,0.959,0.890,��쓌,2.5,��
2017/06/20,07:20,0.965,1.542,1.024,1.840,1.252,0.519,0.959,0.887,��쓌,3.3,��
2017/06/20,07:30,0.967,1.542,1.024,1.844,1.254,0.517,0.957,0.890,��쓌,3.8,��
2017/06/20,07:40,0.966,1.542,1.024,1.841,1.255,0.518,0.958,0.889,��쓌,4.1,��
2017/06/20,07:50,0.968,1.544,1.025,1.842,1.256,0.518,0.960,0.887,��쓌,3.9,��
2017/06/20,08:00,0.965,1.542,1.023,1.839,1.253,0.519,0.958,0.888,��쓌,3.5,��
2017/06/20,08:10,0.968,1.542,1.022,1.842,1.253,0.519,0.957,0.887,�쓌,3.6,��
2017/06/20,08:20,0.967,1.546,1.024,1.843,1.253,0.517,0.957,0.886,�쓌,4.4,��
2017/06/20,08:30,0.968,1.545,1.024,1.843,1.248,0.518,0.958,0.887,�쓌,4.3,��
2017/06/20,08:40,0.966,1.546,1.023,1.844,1.248,0.517,0.958,0.885,�쓌,4.0,��
2017/06/20,08:50,0.967,1.547,1.021,1.845,1.251,0.519,0.957,0.887,�쓌,4.1,��
2017/06/20,09:00,0.968,1.549,1.020,1.844,1.252,0.517,0.957,0.886,�쓌,3.1,��
2017/06/20,09:10,0.969,1.549,1.016,1.845,1.257,0.518,0.957,0.890,�쓌,4.4,��
2017/06/20,09:20,0.969,1.552,1.019,1.845,1.258,0.518,0.957,0.887,��쓌,5.2,��
2017/06/20,09:30,0.970,1.551,1.018,1.844,1.256,0.519,0.958,0.886,�쓌,3.7,��
2017/06/20,09:40,0.971,1.553,1.009,1.847,1.259,0.520,0.958,0.885,�쓌,3.7,��
2017/06/20,09:50,0.971,1.552,1.007,1.847,1.258,0.519,0.960,0.886,��쓌,4.2,��
2017/06/20,10:00,0.972,1.553,1.008,1.847,1.262,0.520,0.959,0.887,��쓌,5.5,��
2017/06/20,10:10,0.973,1.552,1.015,1.848,1.260,0.520,0.960,0.888,��쓌,5.6,��
2017/06/20,10:20,0.972,1.555,1.011,1.847,1.261,0.520,0.961,0.889,�쓌,5.7,��
2017/06/20,10:30,0.976,1.554,1.020,1.847,1.263,0.519,0.959,0.885,��쓌,4.6,��
2017/06/20,10:40,0.975,1.553,1.024,1.851,1.261,0.519,0.959,0.886,��쓌,5.4,��
2017/06/20,10:50,0.975,1.555,1.022,1.850,1.262,0.519,0.961,0.887,��쓌,5.4,��
2017/06/20,11:00,0.974,1.555,1.023,1.853,1.265,0.523,0.961,0.889,��쓌,4.7,��
2017/06/20,11:10,0.978,1.557,1.020,1.852,1.263,0.521,0.962,0.890,��쓌,5.2,��
2017/06/20,11:20,0.977,1.558,1.015,1.847,1.264,0.519,0.961,0.889,��쓌,5.4,��
2017/06/20,11:30,0.976,1.555,1.012,1.845,1.266,0.522,0.963,0.888,��쓌,6.9,��
2017/06/20,11:40,0.978,1.558,1.023,1.846,1.267,0.522,0.962,0.888,��쓌,6.8,��
2017/06/20,11:50,0.978,1.562,1.027,1.845,1.268,0.521,0.962,0.887,��쓌,6.5,��
2017/06/20,12:00,0.979,1.558,1.025,1.846,1.269,0.522,0.963,0.889,��쓌,6.4,��
2017/06/20,12:10,0.981,1.564,1.025,1.847,1.267,0.524,0.963,0.888,��쓌,6.5,��
2017/06/20,12:20,0.981,1.563,1.029,1.848,1.269,0.524,0.962,0.889,��쓌,6.7,��
2017/06/20,12:30,0.978,1.566,1.030,1.849,1.268,0.522,0.962,0.887,��쓌,7.3,��
2017/06/20,12:40,0.982,1.566,1.028,1.850,1.269,0.524,0.963,0.891,��쓌,6.2,��
2017/06/20,12:50,0.982,1.566,1.029,1.851,1.268,0.523,0.965,0.890,��쓌,6.8,��
2017/06/20,13:00,0.982,1.564,1.030,1.850,1.270,0.524,0.963,0.890,��쓌,7.7,��
2017/06/20,13:10,0.984,1.566,1.029,1.848,1.273,0.524,0.963,0.890,��쓌,8.2,��
2017/06/20,13:20,0.984,1.568,1.026,1.854,1.271,0.525,0.963,0.888,��쓌,7.0,��
2017/06/20,13:30,0.985,1.569,1.030,1.853,1.270,0.525,0.966,0.889,��쓌,7.8,��
2017/06/20,13:40,0.984,1.571,1.029,1.852,1.275,0.524,0.966,0.890,��쓌,7.9,��
2017/06/20,13:50,0.986,1.569,1.029,1.853,1.276,0.525,0.964,0.890,��쓌,7.6,��
2017/06/20,14:00,0.985,1.572,1.033,1.853,1.277,0.525,0.965,0.890,��쓌,8.5,��
2017/06/20,14:10,0.986,1.567,1.034,1.855,1.276,0.525,0.963,0.890,��쓌,9.0,��
2017/06/20,14:20,0.986,1.567,1.033,1.855,1.276,0.527,0.964,0.891,��쓌,10.2,��
2017/06/20,14:30,0.989,1.570,1.030,1.854,1.277,0.526,0.966,0.892,��쓌,8.9,��
2017/06/20,14:40,0.985,1.572,1.034,1.854,1.276,0.527,0.966,0.890,��쓌,10.2,��
2017/06/20,14:50,0.988,1.572,1.034,1.853,1.278,0.527,0.967,0.890,��,8.1,��
2017/06/20,15:00,0.988,1.573,1.035,1.857,1.277,0.528,0.966,0.890,��쓌,9.1,��
2017/06/20,15:10,0.987,1.570,1.034,1.855,1.277,0.528,0.965,0.891,��쓌,10.9,��
2017/06/20,15:20,0.987,1.572,1.033,1.854,1.278,0.526,0.965,0.890,��쓌,10.0,��
2017/06/20,15:30,0.988,1.573,1.035,1.857,1.277,0.527,0.966,0.890,��쓌,11.0,��
2017/06/20,15:40,0.988,1.571,1.031,1.856,1.278,0.527,0.964,0.892,��,9.9,��
2017/06/20,15:50,0.990,1.573,1.033,1.857,1.280,0.526,0.964,0.891,��,9.9,��
2017/06/20,16:00,0.990,1.573,1.035,1.857,1.280,0.528,0.966,0.891,��,8.6,��
2017/06/20,16:10,0.989,1.575,1.033,1.859,1.278,0.527,0.966,0.890,��쓌,9.6,��
2017/06/20,16:20,0.991,1.573,1.033,1.856,1.278,0.526,0.966,0.890,��쓌,9.5,��
2017/06/20,16:30,0.987,1.574,1.036,1.860,1.281,0.527,0.966,0.890,��쓌,9.8,��
2017/06/20,16:40,0.990,1.578,1.035,1.861,1.281,0.527,0.965,0.891,��,9.6,��
2017/06/20,16:50,0.991,1.574,1.033,1.859,1.281,0.528,0.965,0.890,��,7.6,��
2017/06/20,17:00,0.989,1.576,1.032,1.860,1.279,0.528,0.965,0.891,��,7.8,��
2017/06/20,17:10,0.989,1.576,1.036,1.862,1.282,0.527,0.965,0.890,��,7.9,��
2017/06/20,17:20,0.987,1.579,1.035,1.858,1.278,0.527,0.964,0.893,��쓌,7.8,��
2017/06/20,17:30,0.989,1.578,1.038,1.858,1.280,0.526,0.964,0.891,��,8.0,��
2017/06/20,17:40,0.988,1.578,1.037,1.858,1.282,0.526,0.966,0.892,��,6.4,��
2017/06/20,17:50,0.989,1.576,1.035,1.858,1.278,0.527,0.966,0.891,��,8.1,��
2017/06/20,18:00,0.987,1.578,1.037,1.857,1.279,0.526,0.967,0.891,��,7.0,��
2017/06/20,18:10,0.989,1.579,1.036,1.856,1.279,0.526,0.965,0.895,��,7.8,��
2017/06/20,18:20,0.988,1.575,1.033,1.860,1.279,0.527,0.965,0.894,��,7.2,��
2017/06/20,18:30,0.988,1.578,1.036,1.859,1.278,0.526,0.964,0.894,��,8.0,��
2017/06/20,18:40,0.991,1.577,1.035,1.861,1.280,0.526,0.965,0.896,��,7.4,��
2017/06/20,18:50,0.989,1.575,1.035,1.863,1.280,0.527,0.964,0.892,��,8.5,��
2017/06/20,19:00,0.991,1.577,1.036,1.862,1.280,0.529,0.964,0.895,��,7.8,��
2017/06/20,19:10,0.989,1.578,1.037,1.862,1.281,0.527,0.965,0.894,��,6.1,��
2017/06/20,19:20,0.989,1.580,1.037,1.863,1.280,0.529,0.966,0.894,��,6.6,��
2017/06/20,19:30,0.990,1.580,1.038,1.862,1.282,0.528,0.968,0.894,��,6.5,��
2017/06/20,19:40,0.989,1.581,1.037,1.866,1.283,0.529,0.967,0.894,��,6.1,��
2017/06/20,19:50,0.992,1.582,1.039,1.860,1.282,0.530,0.967,0.894,��,5.9,��
2017/06/20,20:00,0.993,1.579,1.041,1.863,1.282,0.530,0.967,0.894,��,6.2,��
2017/06/20,20:10,0.993,1.578,1.041,1.864,1.282,0.529,0.969,0.893,��,6.6,��
2017/06/20,20:20,0.991,1.581,1.039,1.863,1.285,0.530,0.970,0.894,��,6.3,��
2017/06/20,20:30,0.995,1.579,1.041,1.859,1.281,0.528,0.968,0.892,��,6.5,��
2017/06/20,20:40,0.993,1.577,1.039,1.864,1.282,0.529,0.969,0.893,��,6.8,��
2017/06/20,20:50,0.993,1.575,1.041,1.863,1.285,0.530,0.970,0.895,��쐼,6.0,��
2017/06/20,21:00,0.994,1.578,1.040,1.863,1.280,0.530,0.969,0.893,��쐼,5.2,��
2017/06/20,21:10,0.992,1.578,1.037,1.861,1.282,0.529,0.968,0.894,��,4.0,��
2017/06/20,21:20,0.993,1.579,1.040,1.863,1.282,0.530,0.967,0.892,��쐼,4.5,��
2017/06/20,21:30,0.989,1.577,1.037,1.861,1.284,0.529,0.968,0.893,��쐼,5.9,��
2017/06/20,21:40,0.990,1.576,1.038,1.859,1.282,0.529,0.968,0.894,��쐼,5.2,��
2017/06/20,21:50,0.993,1.574,1.039,1.864,1.280,0.529,0.967,0.893,��쐼,4.8,��
2017/06/20,22:00,0.993,1.578,1.038,1.860,1.284,0.530,0.969,0.894,��쐼,4.5,��
2017/06/20,22:10,0.993,1.572,1.039,1.860,1.281,0.530,0.967,0.893,��쐼,5.1,��
2017/06/20,22:20,0.993,1.574,1.039,1.862,1.280,0.530,0.968,0.894,��쐼,4.5,��
2017/06/20,22:30,0.991,1.575,1.039,1.862,1.280,0.529,0.967,0.893,��쐼,4.1,��
2017/06/20,22:40,0.994,1.575,1.038,1.866,1.282,0.529,0.967,0.893,��쐼,4.1,��
2017/06/20,22:50,0.990,1.576,1.042,1.861,1.283,0.529,0.968,0.894,��쐼,3.7,��
2017/06/20,23:00,0.992,1.575,1.039,1.862,1.284,0.529,0.969,0.894,�쐼,2.6,��
2017/06/20,23:10,0.991,1.575,1.037,1.865,1.280,0.530,0.967,0.895,�쐼,1.9,��
2017/06/20,23:20,0.991,1.575,1.038,1.863,1.282,0.529,0.968,0.894,��쐼,2.6,��
2017/06/20,23:30,0.991,1.573,1.039,1.863,1.283,0.530,0.969,0.894,��쐼,2.0,��
2017/06/20,23:40,0.990,1.577,1.040,1.862,1.282,0.529,0.967,0.892,��쐼,2.0,��
2017/06/20,23:50,0.991,1.576,1.037,1.861,1.282,0.529,0.968,0.894,���쐼,0.9,��
